Location: Glasgow
(55.8642°N, 4.2518°W)
Time: 18:49:11
(UTC+01:00)

ISS - Pass Details

Date: 07 October 2017
Orbit: 401 x 408 km, 51.6° (Epoch: 22 October)

Event Time Altitude Azimuth Distance (km) Brightness Sun altitude
Rises 21:03:12 0° 272° (W) 2,330 1.3 -21.1°
Reaches altitude 10° 21:05:31 10° 258° (WSW) 1,469 -0.2 -21.4°
Enters shadow 21:07:43 23° 217° (SW) 926 -1.9 -21.7°
